Location: La Silve
(44.2414°N, 5.8889°E)
Time: 11:50:24
(UTC+00:00)

NOSS 3-2 (C) - Pass Details

Date: 01 December 2020
Orbit: 789 x 1424 km, 63.4° (Epoch: 09 January)

Event Time Altitude Azimuth Distance (km) Brightness Sun altitude
Rises 18:07:13 0° 198° (SSW) 3,307 6.7 -22.4°
Reaches altitude 10° 18:09:35 10° 193° (SSW) 2,418 5.8 -22.8°
Maximum altitude 18:14:56 52° 119° (ESE) 1,098 3.4 -23.7°
Enters shadow 18:15:13 51° 109° (ESE) 1,108 3.4 -23.8°
